Regional Weather Roundup
Issued by NWS Kansas City/Pleasant Hill, MO

Home | Current Version | Previous Version | Graphics & Text | Print | Product List | Glossary Off
Versions: 1 2 3 4 5 6 7 8 9 10 11 12 13 14 15 16 17 18 19 20 21 22 23 24 25 26 27 28 29 30 31 32 33 34 35 36 37 38 39 40 41 42 43 44 45 46 47 48 49 50

000
ASUS43 KEAX 201010
RWREAX

WEATHER ROUNDUP FOR EASTERN KANSAS AND NORTHWEST MISSOURI
NATIONAL WEATHER SERVICE KANSAS CITY/PLEASANT HILL MO
500 AM CDT FRI OCT 20 2017

KSZ040-057-103>105-MOZ028-029-037-043-201100-
...KANSAS CITY METROPOLITAN AREA...

CITY           SKY/WX    TMP DP  RH WIND       PRES   REMARKS
K.C. INTL      FAIR      55  51  86 S12       30.07S
K.C. DOWNTOWN  FAIR      60  53  77 S7        30.07S
LEES SUMMIT    FAIR      57  52  83 S14       30.09S
OLATHE - IXD   FAIR      55  52  89 S9        30.09R
OLATHE - OJC   FAIR      55  51  86 S8        30.09R
LAWRENCE       FAIR      56  52  86 S7        30.06F

$$

MOZ001>008-011>017-020>025-030>033-038>040-044>046-053-054-201100-
...NORTHERN AND CENTRAL MISSOURI...

CITY           SKY/WX    TMP DP  RH WIND       PRES   REMARKS
ST. JOSEPH     FAIR      53  51  93 SE5       30.05F
MOSBY          FAIR      54  50  87 SE5       30.09R
WARRENSBURG    FAIR      52  48  87 S6        30.12R
WHITEMAN AFB   CLEAR     50  47  88 S7        30.08S
CLINTON        FAIR      55  50  82 S7        30.14R
SEDALIA        FAIR      59  52  77 S12       30.14R
WARSAW         NOT AVBL
CHILLICOTHE      N/A     50  49  96 S3        30.11R
KIRKSVILLE     FAIR      57  52  83 S7        30.12R

$$

MOZ041-047>049-056>058-063>065-088>090-097-201100-
...EASTERN AND SOUTHERN MISSOURI...

CITY           SKY/WX    TMP DP  RH WIND       PRES   REMARKS
ST. LOUIS INTL FAIR      54  50  86 SE5       30.18R
SPIRIT OF STL  FOG       47  47 100 CALM      30.17R VSB 1/2
COLUMBIA       FAIR      56  49  77 S6        30.15R
JEFFERSON CITY FAIR      50  47  89 CALM      30.16R
ROLLA          FAIR      58  50  75 S15       30.17R
OSAGE BEACH    FAIR      52  49  89 CALM      30.17R
SPRINGFIELD    FAIR      54  50  86 S8        30.16S
BRANSON        FAIR      54  50  87 CALM      30.18S
JOPLIN         FAIR      57  52  83 MISG      30.13F
WEST PLAINS    FAIR      51  48  89 CALM      30.21R

$$

IAZ060-094-KSZ022-034>040-054-083-096-NEZ052-066-093-201100-
...KANSAS...SOUTHEAST NEBRASKA AND IOWA...

CITY           SKY/WX    TMP DP  RH WIND       PRES   REMARKS
TOPEKA         FAIR      61  55  81 S12       30.03F
MANHATTAN      FAIR      61  53  75 SW10      30.00F
EMPORIA        FAIR      57  52  83 S15       30.05S
CHANUTE        FAIR      54  51  90 SE9       30.10S
WICHITA        FAIR      57  54  89 S14       30.02F
OMAHA          MOCLDY    56  50  80 SE12      29.97F
LINCOLN        FAIR      57  51  80 S9        29.95F
FALLS CITY     FAIR      56  52  86 S7        30.01F
LAMONI         FAIR      53  50  89 S9        30.07R
DES MOINES     FAIR      57  52  83 S10       30.03S

$$




USA.gov is the U.S. government's official web portal to all federal, state and local government web resources and services.